GW2973 Weather Reports


time (UTC)temp
F
wind
direction
speed
knots
gust
knots
rain 1hr
in
rain 24hr
in
rain mn
in
humidity
%
barometer
mb
20260507015340 63 149 0.9 1.7 0.00 0.00 0.00 77 1024.9
20260507014837 63 249 4.3 7.8 0.00 0.00 0.00 77 1025.0
20260507014333 63 232 7.0 9.6 0.00 0.00 0.00 76 1025.0
20260507013830 64 201 3.5 6.1 0.00 0.00 0.00 76 1024.8
20260507013327 64 216 3.5 3.5 0.00 0.00 0.00 74 1024.9
20260507012825 64 197 0.9 1.7 0.00 0.00 0.00 75 1025.0
20260507012320 65 195 1.7 2.6 0.00 0.00 0.00 74 1025.2
20260507011818 65 240 3.5 5.2 0.00 0.00 0.00 73 1024.9
20260507011314 66 205 2.6 2.6 0.00 0.00 0.00 72 1024.9
20260507010814 66 302 0.0 0.0 0.00 0.00 0.00 73 1024.7
20260507010310 66 181 2.6 3.5 0.00 0.00 0.00 71 1024.8
20260507005807 66 175 2.6 3.5 0.00 0.00 0.00 72 1024.8
20260507005305 66 94 1.7 1.7 0.00 0.00 0.00 72 1024.9
20260507004800 67 294 3.5 3.5 0.00 0.00 0.00 71 1024.9
20260507004258 68 225 2.6 3.5 0.00 0.00 0.00 71 1024.9
20260507003754 67 258 0.0 0.9 0.00 0.00 0.00 72 1024.9
20260507003249 68 213 1.7 1.7 0.00 0.00 0.00 70 1024.8
20260507002745 68 268 1.7 2.6 0.00 0.00 0.00 72 1025.0
20260507002242 68 222 1.7 2.6 0.00 0.00 0.00 72 1024.9
20260507001739 68 52 1.7 2.6 0.00 0.00 0.00 71 1025.0
20260507001236 68 123 1.7 5.2 0.00 0.00 0.00 71 1025.0
20260507000732 69 35 1.7 1.7 0.00 0.00 0.00 68 1024.8
20260507000228 69 210 1.7 1.7 0.00 0.00 0.00 68 1025.0
20260506235725 69 308 1.7 2.6 0.00 0.00 0.00 68 1025.0
20260506235221 69 215 1.7 2.6 0.00 0.00 0.00 69 1024.9
20260506234718 70 254 2.6 3.5 0.00 0.00 0.00 67 1025.1
20260506234215 69 354 1.7 1.7 0.00 0.00 0.00 69 1025.0
20260506233713 69 170 3.5 5.2 0.00 0.00 0.00 68 1025.1
20260506233209 69 171 1.7 2.6 0.00 0.00 0.00 70 1024.8
20260506232706 70 56 0.9 1.7 0.00 0.00 0.00 69 1024.9
20260506232200 69 9 3.5 5.2 0.00 0.00 0.00 69 1025.0
20260506231658 69 354 0.9 0.9 0.00 0.00 0.00 69 1025.1
20260506231156 69 302 0.9 1.7 0.00 0.00 0.00 70 1025.2
20260506230653 70 309 2.6 3.5 0.00 0.00 0.00 69 1025.2
20260506230149 70 183 2.6 3.5 0.00 0.00 0.00 69 1025.3
20260506225646 70 17 3.5 3.5 0.00 0.00 0.00 69 1025.2
20260506225143 69 46 1.7 2.6 0.00 0.00 0.00 69 1025.3
20260506224639 70 15 2.6 3.5 0.00 0.00 0.00 69 1025.5
20260506224136 71 235 4.3 6.1 0.00 0.00 0.00 68 1025.4
20260506223632 71 289 3.5 3.5 0.00 0.00 0.00 66 1025.2
20260506223128 70 268 2.6 2.6 0.00 0.00 0.00 64 1025.2
20260506222626 71 341 1.7 2.6 0.00 0.00 0.00 64 1025.3
20260506222122 71 46 0.9 1.7 0.00 0.00 0.00 64 1025.5
20260506221620 71 51 1.7 2.6 0.00 0.00 0.00 63 1025.4
20260506221117 71 27 2.6 3.5 0.00 0.00 0.00 63 1025.5
20260506220614 71 28 1.7 2.6 0.00 0.00 0.00 63 1025.5
20260506220109 71 298 1.7 1.7 0.00 0.00 0.00 63 1025.6
20260506215606 71 35 1.7 1.7 0.00 0.00 0.00 62 1025.7
20260506215101 72 357 1.7 2.6 0.00 0.00 0.00 62 1025.6
20260506214559 71 48 0.9 0.9 0.00 0.00 0.00 60 1025.8
20260506214056 71 4 0.9 1.7 0.00 0.00 0.00 61 1025.9
20260506213554 71 9 0.9 0.9 0.00 0.00 0.00 61 1025.9
20260506213051 70 309 0.0 0.0 0.00 0.00 0.00 63 1025.8
20260506212547 70 290 1.7 2.6 0.00 0.00 0.00 62 1026.0
20260506212042 70 27 2.6 2.6 0.00 0.00 0.00 63 1026.0
20260506211539 71 65 1.7 2.6 0.00 0.00 0.00 61 1026.1
20260506211036 70 73 0.9 1.7 0.00 0.00 0.00 63 1026.3
20260506210532 70 42 0.0 0.0 0.00 0.00 0.00 63 1026.3
20260506210029 70 26 0.9 0.9 0.00 0.00 0.00 63 1026.2
20260506205526 70 21 2.6 3.5 0.00 0.00 0.00 63 1026.1
20260506205021 70 22 0.9 1.7 0.00 0.00 0.00 63 1026.4
20260506204519 70 59 2.6 3.5 0.00 0.00 0.00 62 1026.4
20260506204016 69 5 0.9 1.7 0.00 0.00 0.00 63 1026.2
20260506203514 69 17 1.7 3.5 0.00 0.00 0.00 63 1026.4
20260506203010 69 49 0.9 0.9 0.00 0.00 0.00 65 1026.3
20260506202507 68 291 0.9 0.9 0.00 0.00 0.00 64 1026.6
20260506201958 69 19 1.7 1.7 0.00 0.00 0.00 64 1026.6
20260506201455 68 64 0.9 1.7 0.00 0.00 0.00 67 1026.6
20260506200947 68 51 1.7 1.7 0.00 0.00 0.00 66 1027.1
20260506200443 67 50 0.0 0.0 0.00 0.00 0.00 67 1026.8
20260506195939 67 45 0.9 0.9 0.00 0.00 0.00 68 1026.7
20260506195436 67 224 0.0 0.9 0.00 0.00 0.00 68 1026.9
20260506194933 67 66 0.9 0.9 0.00 0.00 0.00 69 1027.0
20260506194430 66 57 0.9 0.9 0.00 0.00 0.00 70 1027.0
20260506193927 66 36 1.7 1.7 0.00 0.00 0.00 70 1026.9
20260506193424 66 37 3.5 3.5 0.00 0.00 0.00 70 1026.9
20260506192915 65 35 1.7 1.7 0.00 0.00 0.00 71 1027.2
20260506192412 66 36 2.6 2.6 0.00 0.00 0.00 71 1027.3
20260506191909 66 38 0.9 0.9 0.00 0.00 0.00 71 1027.1
20260506191405 66 44 0.9 1.7 0.00 0.00 0.00 72 1027.3
20260506190902 65 44 1.7 2.6 0.00 0.00 0.00 73 1027.3
20260506190358 65 49 2.6 2.6 0.00 0.00 0.00 73 1027.2
20260506185855 65 49 3.5 6.1 0.00 0.00 0.00 73 1027.3
20260506185352 65 50 3.5 3.5 0.00 0.00 0.00 73 1027.3
20260506184849 65 55 0.9 1.7 0.00 0.00 0.00 74 1027.5
20260506184346 64 56 0.9 0.9 0.00 0.00 0.00 74 1027.5
20260506183844 65 57 1.7 2.6 0.00 0.00 0.00 73 1027.4
20260506183339 65 58 0.9 0.9 0.00 0.00 0.00 74 1027.4
20260506182836 64 58 0.0 0.0 0.00 0.00 0.00 75 1027.4
20260506182333 63 58 0.9 1.7 0.00 0.00 0.00 75 1027.6
20260506181831 64 63 0.0 0.9 0.00 0.00 0.00 74 1027.6
20260506181329 64 63 1.7 2.6 0.00 0.00 0.00 72 1027.3
20260506180826 64 63 1.7 1.7 0.00 0.00 0.00 72 1027.4
20260506180322 65 66 0.9 0.9 0.00 0.00 0.00 71 1027.6
20260506175818 64 66 0.9 1.7 0.00 0.00 0.00 73 1027.5
20260506175315 64 65 0.0 0.0 0.00 0.00 0.00 73 1027.5
20260506174812 64 66 0.0 0.0 0.00 0.00 0.00 72 1027.6
20260506174309 64 66 0.0 0.0 0.00 0.00 0.00 72 1027.5
20260506173807 64 65 0.0 0.0 0.00 0.00 0.00 73 1027.6
20260506173304 63 66 0.9 0.9 0.00 0.00 0.00 73 1027.5
20260506172801 63 65 0.0 0.0 0.00 0.00 0.00 73 1027.7
20260506172257 62 66 0.9 0.9 0.00 0.00 0.00 74 1027.6
20260506171755 64 66 0.0 0.0 0.00 0.00 0.00 72 1027.5
20260506171251 63 66 0.0 0.9 0.00 0.00 0.00 74 1027.4
20260506170749 61 65 0.0 0.0 0.00 0.00 0.00 78 1027.8
20260506170245 60 65 0.9 0.9 0.00 0.00 0.00 78 1027.7
20260506165744 61 65 0.0 0.0 0.00 0.00 0.00 78 1027.5
20260506165241 62 65 0.9 0.9 0.00 0.00 0.00 76 1027.8
20260506164738 63 65 0.0 0.0 0.00 0.00 0.00 74 1027.7
20260506164235 62 65 0.0 0.0 0.00 0.00 0.00 77 1027.7
20260506163731 62 65 0.0 0.9 0.00 0.00 0.00 77 1027.8
20260506163226 61 66 0.0 0.0 0.00 0.00 0.00 79 1027.6
20260506162723 61 65 0.0 0.0 0.00 0.00 0.00 79 1027.8
20260506162220 60 66 0.0 0.0 0.00 0.00 0.00 79 1027.6
20260506161717 60 66 0.0 0.0 0.00 0.00 0.00 80 1027.7
20260506161215 59 66 0.0 0.0 0.00 0.00 0.00 81 1027.7
20260506160713 59 66 0.0 0.0 0.00 0.00 0.00 81 1027.9
20260506160209 59 55 0.9 0.9 0.00 0.00 0.00 81 1027.6
20260506155707 59 60 0.0 0.0 0.00 0.00 0.00 81 1027.8
20260506155204 58 65 0.0 0.0 0.00 0.00 0.00 84 1027.7
20260506153306 57 63 0.0 0.0 0.00 0.00 0.00 84 1027.6
20260506152803 57 63 0.0 0.0 0.00 0.00 0.00 84 1027.5
20260506152300 57 64 0.9 0.9 0.00 0.00 0.00 85 1027.5
20260506151759 57 63 0.0 0.9 0.00 0.00 0.00 85 1027.6
20260506151255 56 66 0.0 0.0 0.00 0.00 0.00 86 1027.6
20260506150751 56 63 0.0 0.0 0.00 0.00 0.00 87 1027.5
20260506150249 56 107 0.0 0.0 0.00 0.00 0.00 87 1027.5
20260506145746 56 78 0.0 0.9 0.00 0.00 0.00 87 1027.5
20260506145242 56 72 0.0 0.0 0.00 0.00 0.00 88 1027.6
20260506144740 55 44 0.9 1.7 0.00 0.00 0.00 88 1027.6
20260506144236 55 74 0.0 0.9 0.00 0.00 0.00 88 1027.4
20260506143734 55 70 0.9 0.9 0.00 0.00 0.00 89 1027.5
20260506143231 55 73 0.0 0.9 0.00 0.00 0.00 89 1027.6
20260506142730 55 103 0.0 0.9 0.00 0.00 0.00 89 1027.5
20260506142227 55 73 0.0 0.0 0.00 0.00 0.00 89 1027.3
20260506141725 55 72 0.0 0.0 0.00 0.00 0.00 89 1027.3
20260506141224 55 72 0.9 0.9 0.00 0.00 0.00 90 1027.3
20260506140721 55 30 0.0 0.9 0.00 0.00 0.00 90 1027.3
20260506140217 55 72 0.0 0.0 0.00 0.00 0.00 90 1027.4
20260506135714 55 72 0.0 0.0 0.00 0.00 0.00 90 1027.2
20260506135210 54 93 0.0 0.0 0.00 0.00 0.00 90 1027.1
20260506134707 54 83 0.0 0.0 0.00 0.00 0.00 90 1027.2
20260506134203 54 120 0.0 0.0 0.00 0.00 0.00 90 1026.9
20260506133701 54 73 0.0 0.0 0.00 0.00 0.00 90 1027.1
20260506133157 54 67 0.0 0.0 0.00 0.00 0.00 90 1026.8
20260506132655 54 66 0.0 0.0 0.00 0.00 0.00 91 1027.1
20260506132151 54 72 0.0 0.0 0.00 0.00 0.00 91 1026.7
20260506131649 54 94 0.0 0.0 0.00 0.00 0.00 91 1026.8
20260506131145 54 103 0.0 0.0 0.00 0.00 0.00 91 1026.7
20260506130642 53 70 0.0 0.0 0.00 0.00 0.00 92 1026.7
20260506130140 53 65 0.0 0.0 0.00 0.00 0.00 92 1026.6
20260506125638 53 69 0.0 0.0 0.00 0.00 0.00 92 1026.6
20260506125135 53 101 0.0 0.0 0.00 0.00 0.00 93 1026.6
20260506124633 53 75 0.0 0.0 0.00 0.00 0.00 93 1026.6
20260506124131 53 74 0.0 0.0 0.00 0.00 0.00 94 1026.5
20260506123628 53 107 0.0 0.0 0.00 0.00 0.00 94 1026.5
20260506123126 52 36 0.0 0.0 0.00 0.00 0.00 95 1026.5
20260506122622 52 119 0.0 0.0 0.00 0.00 0.00 95 1026.5
20260506122120 52 120 0.0 0.0 0.00 0.00 0.00 95 1026.7
20260506121618 51 133 0.0 0.0 0.00 0.00 0.00 95 1026.4
20260506121114 51 133 0.0 0.0 0.00 0.00 0.00 95 1026.4
20260506120612 51 133 0.0 0.0 0.00 0.00 0.00 95 1026.6
20260506120109 51 133 0.0 0.0 0.00 0.00 0.00 95 1026.5
20260506115608 51 133 0.0 0.0 0.00 0.00 0.00 95 1026.4
20260506115106 51 133 0.0 0.0 0.00 0.00 0.00 95 1026.1
20260506114602 52 133 0.0 0.0 0.00 0.00 0.00 95 1026.3
20260506114101 52 133 0.0 0.0 0.00 0.00 0.00 95 1026.4
20260506113558 52 133 0.0 0.0 0.00 0.00 0.00 95 1026.1
20260506113055 51 133 0.0 0.0 0.00 0.00 0.00 94 1026.2
20260506112552 51 133 0.0 0.0 0.00 0.00 0.00 94 1026.1
20260506112049 51 134 0.0 0.0 0.00 0.00 0.00 94 1026.1
20260506111547 51 134 0.0 0.0 0.00 0.00 0.00 94 1026.1
20260506111044 52 134 0.0 0.0 0.00 0.00 0.00 94 1026.4
20260506110542 52 134 0.0 0.0 0.00 0.00 0.00 94 1026.1
20260506110039 52 134 0.0 0.0 0.00 0.00 0.00 94 1026.0
20260506105535 52 134 0.0 0.0 0.00 0.00 0.00 94 1026.1
20260506105032 52 134 0.0 0.0 0.00 0.00 0.00 93 1025.8
20260506104530 52 134 0.0 0.0 0.00 0.00 0.00 93 1026.0
20260506104028 52 133 0.0 0.0 0.00 0.00 0.00 93 1026.0
20260506103525 53 133 0.0 0.0 0.00 0.00 0.00 93 1026.0
20260506103021 53 133 0.0 0.0 0.00 0.00 0.00 93 1026.0
20260506102520 53 134 0.0 0.0 0.00 0.00 0.00 93 1025.8
20260506102017 53 131 0.0 0.0 0.00 0.00 0.00 93 1026.1
20260506101513 53 128 0.0 0.0 0.00 0.00 0.00 93 1026.0
20260506101010 53 118 0.0 0.0 0.00 0.00 0.00 92 1026.0
20260506100509 53 118 0.0 0.0 0.00 0.00 0.00 92 1025.9
20260506100007 54 105 0.0 0.0 0.00 0.00 0.00 92 1025.7
20260506095505 54 120 0.0 0.0 0.00 0.00 0.00 92 1025.7
20260506095001 54 70 0.0 0.0 0.00 0.00 0.00 92 1026.0
20260506094459 54 70 0.0 0.0 0.00 0.00 0.00 91 1025.9
20260506093956 54 69 0.0 0.0 0.00 0.00 0.00 91 1026.0
20260506093455 55 70 0.0 0.0 0.00 0.00 0.00 91 1025.8
20260506092952 55 69 0.0 0.0 0.00 0.00 0.00 91 1026.0
20260506092450 55 63 0.0 0.0 0.00 0.00 0.00 90 1026.0
20260506091946 55 50 0.9 0.9 0.00 0.00 0.00 90 1025.8
20260506091444 55 73 0.9 0.9 0.00 0.00 0.00 90 1025.9
20260506090941 55 60 0.9 0.9 0.00 0.00 0.00 90 1025.8
20260506090439 55 61 0.9 0.9 0.00 0.00 0.00 89 1025.9
20260506085935 55 72 0.0 0.0 0.00 0.00 0.00 89 1025.9
20260506085432 56 70 0.9 0.9 0.00 0.00 0.00 89 1025.8
20260506084928 56 71 0.0 0.0 0.00 0.00 0.00 88 1025.8
20260506084426 56 115 0.9 0.9 0.00 0.00 0.00 88 1025.8
20260506083921 56 107 0.0 0.9 0.00 0.00 0.00 88 1025.9
20260506083419 56 68 0.9 0.9 0.00 0.00 0.00 88 1025.7
20260506082916 56 77 0.0 0.0 0.00 0.00 0.00 88 1025.8
20260506082414 56 158 0.9 1.7 0.00 0.00 0.00 88 1025.9
20260506081909 56 113 0.0 0.0 0.00 0.00 0.00 88 1026.0
20260506081408 56 166 0.0 0.9 0.00 0.00 0.00 88 1025.9
20260506080904 56 155 0.0 0.0 0.00 0.00 0.00 88 1025.6
20260506080402 56 36 0.9 0.9 0.00 0.00 0.00 88 1025.7
20260506073345 56 69 0.0 0.0 0.00 0.00 0.00 88 1025.8
20260506072842 56 53 0.0 0.0 0.00 0.00 0.00 87 1025.7
20260506072340 56 97 0.0 0.0 0.00 0.00 0.00 87 1025.6
20260506071837 56 72 0.0 0.0 0.00 0.00 0.00 87 1025.7
20260506071335 56 121 0.0 0.0 0.00 0.00 0.00 86 1025.7
20260506070831 56 196 1.7 1.7 0.00 0.00 0.00 86 1025.5
20260506070328 56 121 0.0 0.9 0.00 0.00 0.00 86 1025.5
20260506062306 56 118 0.9 0.9 0.00 0.01 0.01 85 1025.2
20260506061802 56 140 0.9 0.9 0.00 0.01 0.01 85 1025.1
20260506061259 56 226 0.9 1.7 0.00 0.01 0.01 85 1025.0
20260506060757 56 127 0.0 0.9 0.00 0.01 0.01 85 1025.2
20260506060254 56 104 0.0 0.0 0.00 0.01 0.01 85 1025.1
20260506051226 56 109 0.0 0.9 0.00 0.01 0.01 85 1024.7
20260506050724 56 123 0.9 0.9 0.00 0.01 0.01 85 1024.6
20260506050221 56 101 0.0 0.0 0.00 0.01 0.01 84 1024.7
20260506044712 56 138 0.9 0.9 0.00 0.01 0.01 84 1024.4
20260506044209 56 133 1.7 2.6 0.00 0.01 0.01 84 1024.7
20260506043706 56 297 1.7 2.6 0.00 0.01 0.01 84 1024.5
20260506043204 56 144 0.9 1.7 0.00 0.01 0.01 84 1024.4
20260506042703 56 123 0.0 0.9 0.00 0.01 0.01 84 1024.4
20260506042201 56 164 0.9 0.9 0.00 0.01 0.01 84 1024.2
20260506041659 56 127 0.9 1.7 0.00 0.01 0.01 84 1024.5
20260506041155 56 186 1.7 2.6 0.00 0.01 0.01 84 1024.2
20260506040653 56 164 1.7 2.6 0.00 0.01 0.01 84 1024.2
20260506040150 56 220 4.3 6.1 0.00 0.01 0.01 83 1024.1
20260506035647 56 177 1.7 1.7 0.00 0.01 0.01 83 1023.9
20260506035143 56 85 0.0 0.0 0.00 0.01 0.01 84 1023.8
20260506034635 56 229 0.9 1.7 0.00 0.01 0.01 84 1024.1
20260506034132 56 195 0.9 1.7 0.00 0.01 0.01 84 1023.9
20260506033629 56 122 0.9 0.9 0.00 0.01 0.01 84 1023.7
20260506033126 57 220 4.3 6.1 0.00 0.01 0.01 84 1023.6
20260506032623 57 215 1.7 2.6 0.00 0.01 0.01 84 1023.7
20260506032120 57 205 1.7 1.7 0.00 0.01 0.01 84 1023.7
20260506031617 57 202 2.6 3.5 0.00 0.01 0.01 84 1023.6
20260506031114 57 69 0.0 0.9 0.00 0.01 0.01 83 1023.5
20260506030613 57 152 0.9 1.7 0.00 0.01 0.01 83 1023.6
20260506030109 57 213 2.6 5.2 0.00 0.01 0.01 83 1023.6
20260506025606 57 221 2.6 3.5 0.00 0.01 0.01 83 1023.4
20260506025102 57 191 1.7 3.5 0.00 0.01 0.01 83 1023.3
20260506024559 57 236 1.7 1.7 0.00 0.01 0.01 83 1023.3
20260506024050 57 207 1.7 2.6 0.00 0.01 0.01 83 1023.2
20260506023546 57 253 1.7 2.6 0.00 0.01 0.01 83 1023.1
20260506023043 58 245 3.5 5.2 0.00 0.01 0.01 83 1023.0
20260506022541 58 184 1.7 2.6 0.00 0.01 0.01 82 1023.1
20260506022039 59 238 1.7 2.6 0.00 0.01 0.01 82 1023.1
20260506021536 59 123 1.7 1.7 0.00 0.01 0.01 81 1023.2
20260506021033 59 199 1.7 3.5 0.00 0.01 0.01 81 1023.2
20260506020531 60 266 3.5 5.2 0.00 0.01 0.01 79 1023.2
20260506020028 59 188 1.7 2.6 0.00 0.01 0.01 79 1023.0